Location: Unspecified
(48.2082°N, 0.0000°E)
Time: 10:42:50
(UTC+00:00)

Altair - Pass Details

Date: 19 June 2019
Orbit: 1501 x 1683 km, 47.2° (Epoch: 20 July)

Event Time Altitude Azimuth Distance (km) Brightness Sun altitude
Rises 02:18:34 0° 289° (WNW) 4,863 10.0 -12.0°
Reaches altitude 10° 02:21:45 10° 285° (WNW) 3,895 9.4 -11.8°
Maximum altitude 02:31:21 54° 212° (SSW) 1,976 7.7 -10.9°
Drops below altitude 10° 02:41:05 10° 139° (SE) 3,938 9.5 -9.9°
Sets 02:44:20 0° 135° (SE) 4,920 10.1 -9.6°
